FENGYUN 1C DEB

Satellite information

Favourite Embed

Satellite Type and Status

DEBRISIN ORBIT

Key statistics

Satellite FENGYUN 1C DEB at a glance.

Uptime

9554

Days in orbit

Revolutions

≈ 14.6

Per day

Orbit

SSO

Sun Synchronous Orbit

Inclination

98.9

Latest

Satellite identification and parameters

Extended collection of information and parameters for FENGYUN 1C DEB.

Object identification

Identified? True

Debris? True

Object name: FENGYUN 1C DEB

International designator: 1999-025ANF

Object number (NORAD): 30624

Object ID (CCSDS): 30624

Country: PEOPLES REPUBLIC OF CHINA (PRC)

Current information (Y/N): Y

RCS size: SMALL

Orbital parameters

Period: 98.951 minutes

Inclination: 98.8914 deg

SMA: 7086.631 km

Apoapsis: 724.862 km

Periapsis: 692.13 km

RAAN: 256.9167 deg

Eccentricy: 0.0023094

Argument of periapsis: 56.3256 deg

Mean anomaly: 304.0137 deg

Mean motion: 14.55268115 rev/day

Mean motion (dot): 0.00012395 rev/day2

B* drag term: 0.0028586 1/REarth

Two-line elements (TLE)

Creation date: July 5, 2025, 4:36 a.m.

Reference frame: TEME

Reference center: EARTH

Epoch: July 4, 2025, 10:11 p.m. UTC

TLE line 0: 0 FENGYUN 1C DEB

TLE line 1: 1 30624U 99025ANF 25185.92497240 .00012395 00000-0 28586-2 0 9999

TLE line 2: 2 30624 98.8914 256.9167 0023094 56.3256 304.0137 14.55268115951525

Live tracking on map

Real-time ground track for satellite FENGYUN 1C DEB.

In-orbit conjunctions

A list of the most updated potential collisions computed for object FENGYUN 1C DEB.

Target Orbit TCA Probability of collision Miss distance Type
COSMOS 2251 DEB LEO 2024-11-15 11:21:47 0.0003612883 672.0 (m) DEBRIS

Associated space launch

Chinese polar orbiting meteorological satellite

FENGYUN 1C DEB was lifted into orbit during the mission ‘Long March 4B | Feng Yun 1C’, on board a Long March 4B space rocket.

The launch took place on May 10, 1999, 1:33 a.m. from Launch Complex 7.

For more information about the launch, click the button.

Launch to space Long March 4B | Feng Yun 1C
Long March 4B | Feng Yun 1C

Agency: N/A

Status: Launch Successful

Launch date: May 10, 1999, 1:33 a.m. UTC

Rocket: Long March 4B

Launch pad: Launch Complex 7

Location: Taiyuan Satellite Launch Center, People's Republic of China

...

Latest news about this satellite

There are no fresh news available about this satellite. Check back as we update our databases every day.


Newsletter sign-up

Weekly statistics, charts and insights to help you stay on top of the space industry.